Location: Molalla
(45.1473°N, 122.5770°W)
Time: 15:15:35
(UTC-08:00)

A-11 Canister half - Visible Passes

Search period start: 11 November 2019 00:00
Search period end: 21 November 2019 00:00
Orbit: 1527 x 1682 km, 47.3° (Epoch: 10 November)

Date Brightness Start Highest point End Pass type
(mag) Time Alt. Az. Time Alt. Az. Time Alt. Az.
11 Nov 9.1 17:26:20 10° W 17:36:04 81° N 17:45:28 10° E visible
11 Nov 9.1 19:31:41 10° WNW 19:41:04 65° SSW 19:43:47 48° SSE visible
11 Nov 10.6 21:37:50 10° W 21:42:06 21° WSW 21:42:06 21° WSW visible
12 Nov 9.1 17:04:39 10° W 17:14:25 80° N 17:23:52 10° E visible
12 Nov 9.1 19:10:02 10° WNW 19:19:27 67° SSW 19:23:38 36° SE visible
12 Nov 10.4 21:16:04 10° W 21:21:57 24° WSW 21:21:57 24° WSW visible
13 Nov 9.1 18:48:22 10° WNW 18:57:51 69° SSW 19:03:35 26° SE visible
13 Nov 10.3 20:54:18 10° W 21:01:35 26° SW 21:01:56 26° SW visible
14 Nov 9.2 18:26:42 10° WNW 18:36:15 71° SSW 18:43:40 18° SE visible
14 Nov 10.2 20:32:33 10° WNW 20:40:03 28° SW 20:42:01 26° SSW visible
15 Nov 9.2 18:05:03 10° WNW 18:14:37 73° SSW 18:23:53 10° SE visible
15 Nov 10.3 20:10:48 10° WNW 20:18:30 29° SW 20:22:15 22° SSW visible
16 Nov 9.2 17:43:23 10° WNW 17:53:01 75° SSW 18:02:21 10° ESE visible
16 Nov 10.3 19:49:05 10° WNW 19:56:57 31° SW 20:02:40 17° S visible
17 Nov 9.2 17:21:42 10° WNW 17:31:24 77° SSW 17:40:46 10° ESE visible
17 Nov 10.3 19:27:21 10° WNW 19:35:24 32° SW 19:43:18 10° SSE visible
18 Nov 9.2 17:00:02 10° WNW 17:09:46 79° SSW 17:19:10 10° ESE visible
18 Nov 10.3 19:05:38 10° WNW 19:13:51 34° SW 19:21:54 10° SSE visible
19 Nov 10.3 18:43:55 10° WNW 18:52:18 36° SW 19:00:28 10° SSE visible
20 Nov 10.3 18:22:13 10° WNW 18:30:44 38° SW 18:39:03 10° SSE visible
